{"data":{"norad_id":60402,"epoch":"2026-05-25T04:43:28.668576Z","epoch_age_seconds":51186,"freshness":"FRESH","line1":"1 60402U 24141E   26145.19685959  .00002667  00000+0  26866-4 0  9996","line2":"2 60402  53.1588  68.7872 0000932  80.6694 279.4429 15.69709500103765","mean_motion":15.697095,"eccentricity":9.32e-5,"inclination_deg":53.1588,"raan_deg":68.7872,"arg_perigee_deg":80.6694,"mean_anomaly_deg":279.4429,"bstar":2.6866e-5,"rev_number":10376,"period_min":91.736719437577,"perigee_km":359.10021219388,"apogee_km":360.35615026366,"semimajor_km":6737.8651812288,"source":"CELESTRAK","updated_at":"2026-05-25T13:38:19.266712Z"}}